Regional Weather Roundup
Issued by NWS Goodland, KS

Home | Current Version | Previous Version | Graphics & Text | Print | Product List | Glossary On
Versions: 1 2 3 4 5 6 7 8 9 10 11 12 13 14 15 16 17 18 19 20 21 22 23 24 25 26 27 28 29 30 31 32 33 34 35 36 37 38 39 40 41 42 43 44 45 46 47 48 49 50
000
ASUS43 KGLD 300259
RWRGLD

GOODLAND FORECAST AREA HOURLY WEATHER ROUNDUP
NATIONAL WEATHER SERVICE GOODLAND KS
900 PM MDT WED JUL 29 2015

...OFFICIAL OBSERVATIONS...

CITY           SKY/WX    TMP DP  RH WIND       PRES   REMARKS
GOODLAND KS    CLEAR     63  51  65 SE6       30.27R
HILL CITY KS   CLEAR     70  58  65 E3        30.21R
IMPERIAL NEB   CLEAR     70  45  40 S9        30.25R
MCCOOK NEB     CLEAR     69  56  62 SE3       30.23R
AKRON CO       CLEAR     68  45  43 SE14      30.28S
BURLINGTON CO  CLEAR     67  49  52 SE8       30.30R
LIMON CO       MOCLDY    65  49  56 SE8       30.33R
$$

...UNOFFICIAL OBSERVATIONS...

CITY           SKY/WX    TMP DP  RH WIND       PRES   REMARKS
COLBY KS       CLEAR     66  55  68 SE5       30.26R
NORTON KS      CLEAR     68  54  60 SE3       30.21R
SHARON SPRINGS   N/A     68  58  70 CALM        N/A
KIT CARSON CO    N/A     70  53  55 MISG        N/A
YUMA CO          N/A     64  49  59 SE5         N/A
$$



USA.gov is the U.S. government's official web portal to all federal, state and local government web resources and services.